TimeMDT,TemperatureF,Dew PointF,Humidity,Sea Level PressureIn,VisibilityMPH,Wind Direction,Wind SpeedMPH,Gust SpeedMPH,PrecipitationIn,Events,Conditions,WindDirDegrees,DateUTC
12:48 AM,51.1,43.0,74,29.57,-9999.0,NNW,3.5,-,N/A,,Unknown,340,2013-09-25 06:48:00
1:48 AM,53.1,46.9,80,29.57,-9999.0,West,11.5,-,N/A,,Unknown,280,2013-09-25 07:48:00
2:48 AM,48.9,46.0,90,29.61,-9999.0,WNW,9.2,-,N/A,,Unknown,290,2013-09-25 08:48:00
3:48 AM,48.9,46.0,90,29.64,-9999.0,WNW,3.5,-,N/A,,Unknown,290,2013-09-25 09:48:00
4:48 AM,50.0,46.0,86,29.65,-9999.0,WNW,11.5,-,N/A,,Unknown,300,2013-09-25 10:48:00
5:48 AM,48.0,45.0,89,29.64,-9999.0,WNW,10.4,-,N/A,,Unknown,290,2013-09-25 11:48:00
6:48 AM,48.9,46.0,90,29.64,-9999.0,WNW,6.9,-,N/A,,Unknown,290,2013-09-25 12:48:00
7:48 AM,50.0,46.0,86,29.67,-9999.0,West,8.1,-,N/A,,Unknown,270,2013-09-25 13:48:00
8:48 AM,50.0,46.0,86,29.71,-9999.0,WSW,6.9,-,N/A,,Unknown,240,2013-09-25 14:48:00
10:48 AM,52.0,46.0,80,29.68,-9999.0,NNW,8.1,-,N/A,,Unknown,330,2013-09-25 16:48:00
12:48 PM,54.0,45.0,72,29.67,-9999.0,NNW,12.7,-,N/A,,Unknown,330,2013-09-25 18:48:00
1:48 PM,55.0,44.1,67,29.65,-9999.0,NNW,15.0,-,N/A,,Unknown,330,2013-09-25 19:48:00
2:48 PM,55.9,43.0,62,29.66,-9999.0,NNW,15.0,-,N/A,,Unknown,340,2013-09-25 20:48:00
3:48 PM,55.9,42.1,60,29.68,-9999.0,NNW,12.7,-,N/A,,Unknown,340,2013-09-25 21:48:00
4:48 PM,55.0,43.0,64,29.70,-9999.0,NW,8.1,-,N/A,,Unknown,320,2013-09-25 22:48:00
5:48 PM,54.0,43.0,66,29.68,-9999.0,NNW,13.8,-,N/A,,Unknown,340,2013-09-25 23:48:00
6:48 PM,53.1,42.1,66,29.73,-9999.0,NNW,9.2,-,N/A,,Unknown,330,2013-09-26 00:48:00
7:48 PM,51.1,42.1,71,29.73,-9999.0,NNW,13.8,-,N/A,,Unknown,340,2013-09-26 01:48:00
8:48 PM,51.1,42.1,71,29.73,-9999.0,NNW,12.7,-,N/A,,Unknown,340,2013-09-26 02:48:00
9:48 PM,48.9,42.1,77,29.73,-9999.0,NNW,12.7,-,N/A,,Unknown,340,2013-09-26 03:48:00
10:48 PM,48.9,43.0,80,29.74,-9999.0,NNW,6.9,-,N/A,,Unknown,330,2013-09-26 04:48:00
11:48 PM,46.9,43.0,86,29.70,-9999.0,NNW,16.1,-,N/A,,Unknown,340,2013-09-26 05:48:00